DD5ASA Weather Reports


time (UTC)temp
F
wind
direction
speed
knots
gust
knots
rain 1hr
in
rain 24hr
in
rain mn
in
humidity
%
barometer
mb
20260906022033 56 300 1.7 3.5 0.00 0.00 0.00 67 1026.5
20260906021037 56 271 0.9 2.6 0.00 0.00 0.00 66 1026.5
20260906020044 56 270 1.7 2.6 0.00 0.00 0.00 66 1026.5
20260906015045 56 260 1.7 2.6 0.00 0.00 0.00 66 1026.5
20260906014039 56 259 2.6 3.5 0.00 0.00 0.00 66 1026.5
20260906013038 56 245 1.7 3.5 0.00 0.00 0.00 65 1026.5
20260906012017 57 253 1.7 4.3 0.00 0.00 0.00 66 1026.5
20260906011019 57 220 3.5 7.0 0.00 0.00 0.00 66 1026.5
20260906010045 57 261 2.6 5.2 0.00 0.00 0.00 66 1026.5
20260906005015 57 246 1.7 2.6 0.00 0.04 0.00 67 1026.5
20260906004015 57 252 0.9 1.7 0.00 0.04 0.00 68 1026.5
20260906003030 57 248 1.7 2.6 0.00 0.04 0.00 69 1026.5
20260906002040 57 273 0.9 1.7 0.00 0.04 0.00 67 1026.5
20260906001021 57 243 0.9 1.7 0.00 0.04 0.00 68 1026.5
20260906000022 57 239 1.7 2.6 0.00 0.04 0.00 67 1026.5
20260905235017 57 255 0.9 1.7 0.00 0.04 0.00 67 1026.5
20260905234050 57 237 1.7 2.6 0.00 0.04 0.00 68 1026.5
20260905233152 57 332 1.7 3.5 0.00 0.04 0.00 69 1025.6
20260905232023 57 253 0.9 1.7 0.00 0.04 0.00 66 1025.4
20260905231144 57 225 0.0 0.9 0.00 0.04 0.00 67 1025.4
20260905230049 58 234 1.7 2.6 0.00 0.04 0.00 66 1025.4
20260905225032 58 270 0.0 0.9 0.00 0.04 0.00 65 1025.4
20260905224030 58 270 0.0 1.7 0.00 0.04 0.00 65 1025.4
20260905223030 58 0.0 0.0 0.00 0.04 0.00 64 1025.4
20260905222031 58 0.0 0.0 0.00 0.04 0.00 63 1025.4
20260905221024 58 0.0 0.0 0.00 0.04 0.00 64 1025.4
20260905220051 58 225 0.9 1.7 0.00 0.04 0.00 65 1025.4
20260905215015 58 233 0.9 1.7 0.00 0.13 0.12 64 1025.4
20260905214051 59 264 0.9 1.7 0.00 0.13 0.12 64 1025.4
20260905213044 59 0.0 0.0 0.00 0.13 0.12 63 1025.4
20260905211534 59 0.0 0.0 0.00 0.13 0.12 63 1025.4
20260905210518 59 231 0.9 1.7 0.00 0.13 0.12 63 1025.4
20260905205544 59 0 0.0 1.7 0.00 0.33 0.12 62 1024.4
20260905204542 59 238 1.7 2.6 0.00 0.33 0.12 63 1024.4
20260905203041 59 237 1.7 2.6 0.00 0.33 0.12 61 1024.4
20260905202026 59 246 1.7 2.6 0.00 0.33 0.12 61 1024.4
20260905201042 59 0.0 0.0 0.00 0.33 0.12 60 1024.4
20260905200035 60 270 0.0 3.5 0.00 0.33 0.12 59 1024.4
20260905195021 60 232 1.7 2.6 0.00 0.33 0.12 59 1024.4
20260905194057 60 256 1.7 2.6 0.00 0.33 0.12 57 1024.4
20260905193034 60 254 2.6 5.2 0.00 0.33 0.12 57 1023.5
20260905192018 60 237 1.7 2.6 0.00 0.33 0.12 57 1023.3
20260905191104 61 250 1.7 2.6 0.00 0.33 0.12 57 1023.3
20260905190054 61 209 1.7 2.6 0.00 0.33 0.12 55 1023.3
20260905185017 61 270 2.6 4.3 0.00 0.37 0.12 55 1023.3
20260905184037 61 280 3.5 7.0 0.00 0.37 0.12 52 1023.3
20260905183056 62 344 2.6 4.3 0.00 0.37 0.12 49 1023.3
20260905182017 62 317 4.3 5.2 0.00 0.37 0.12 48 1023.3
20260905181050 63 347 3.5 6.1 0.00 0.37 0.12 46 1022.3
20260905175522 64 340 3.5 4.3 0.00 0.37 0.12 45 1022.3
20260905174550 64 204 3.5 6.1 0.00 0.37 0.12 43 1022.3
20260905173050 65 245 3.5 6.1 0.00 0.37 0.12 42 1022.3
20260905172041 65 260 2.6 4.3 0.00 0.37 0.12 42 1022.3
20260905171034 65 281 4.3 6.1 0.00 0.37 0.12 41 1022.3
20260905170018 66 262 2.6 5.2 0.00 0.37 0.12 41 1022.3
20260905165058 66 261 4.3 8.7 0.00 0.37 0.12 40 1022.3
20260905164042 66 267 3.5 5.2 0.00 0.37 0.12 41 1022.3
20260905162524 66 269 3.5 7.0 0.00 0.37 0.12 39 1021.3
20260905161531 67 277 4.3 5.2 0.00 0.37 0.12 39 1021.3
20260905160533 68 280 2.6 4.3 0.00 0.37 0.12 39 1021.3
20260905155549 68 251 3.5 4.3 0.00 0.37 0.12 39 1021.3
20260905154544 68 245 7.0 8.7 0.00 0.37 0.12 38 1021.3
20260905153528 68 223 5.2 7.0 0.00 0.37 0.12 39 1021.3
20260905152537 69 225 5.2 7.8 0.00 0.37 0.12 38 1021.3
20260905151524 69 240 4.3 6.1 0.00 0.37 0.12 38 1021.3
20260905150600 69 248 5.2 7.0 0.00 0.37 0.12 38 1021.3
20260905145524 70 241 4.3 6.1 0.00 0.37 0.12 37 1021.3
20260905144537 70 227 7.0 8.7 0.00 0.37 0.12 37 1021.3
20260905143539 70 215 7.0 11.3 0.00 0.37 0.12 38 1021.3
20260905142516 70 238 5.2 7.8 0.00 0.37 0.12 38 1021.3
20260905141544 70 212 6.1 7.8 0.00 0.37 0.12 40 1021.3
20260905140611 68 232 4.3 5.2 0.00 0.37 0.12 41 1021.3
20260905135515 68 231 3.5 6.1 0.00 0.37 0.12 40 1021.3
20260905134557 67 220 6.1 8.7 0.00 0.37 0.12 41 1021.3
20260905133611 68 293 3.5 5.2 0.00 0.37 0.12 42 1021.3
20260905132535 67 282 5.2 7.8 0.00 0.37 0.12 43 1021.3
20260905131523 68 238 3.5 6.1 0.00 0.37 0.12 43 1021.3
20260905130607 67 261 2.6 5.2 0.00 0.37 0.12 42 1021.3
20260905125606 68 217 5.2 7.0 0.00 0.37 0.12 41 1021.3
20260905124531 71 249 6.1 10.4 0.00 0.37 0.12 39 1021.3
20260905123544 70 263 3.5 5.2 0.00 0.37 0.12 41 1021.3
20260905122526 70 217 6.1 8.7 0.00 0.37 0.12 40 1021.3
20260905121551 69 313 4.3 8.7 0.00 0.37 0.12 43 1021.3
20260905120539 69 253 5.2 8.7 0.00 0.37 0.12 42 1021.3
20260905115554 69 237 6.1 8.7 0.00 0.37 0.12 42 1021.3
20260905114517 66 215 6.1 13.9 0.00 0.37 0.12 43 1021.3
20260905113600 69 227 4.3 6.1 0.00 0.37 0.12 43 1021.3
20260905112542 67 226 6.1 8.7 0.00 0.37 0.12 44 1021.3
20260905111046 65 252 6.1 8.7 0.00 0.37 0.12 45 1021.3
20260905105551 66 261 3.5 4.3 0.00 0.37 0.12 46 1021.3
20260905104534 68 250 6.1 7.8 0.00 0.37 0.12 46 1021.3
20260905103518 68 225 8.7 10.4 0.00 0.37 0.12 46 1021.3
20260905102521 67 239 5.2 7.0 0.00 0.37 0.12 47 1021.3
20260905101542 66 276 3.5 5.2 0.00 0.37 0.12 48 1021.3
20260905100526 68 278 5.2 6.1 0.00 0.37 0.12 47 1021.3
20260905095534 67 242 7.8 11.3 0.00 0.37 0.12 47 1021.3
20260905094551 67 223 3.5 4.3 0.00 0.37 0.12 47 1021.3
20260905093534 66 270 6.1 8.7 0.00 0.37 0.12 48 1021.3
20260905092538 67 237 5.2 7.8 0.00 0.37 0.12 48 1021.3
20260905091558 67 251 4.3 5.2 0.00 0.37 0.12 50 1021.3
20260905090526 65 280 4.3 6.1 0.00 0.37 0.12 55 1021.3
20260905085554 65 293 4.3 7.8 0.00 0.37 0.12 55 1021.3
20260905084558 64 299 5.2 7.0 0.00 0.37 0.12 58 1020.6
20260905083533 66 298 6.1 7.0 0.00 0.37 0.12 61 1020.2
20260905082601 62 280 3.5 6.1 0.00 0.37 0.12 64 1020.2
20260905081515 63 214 4.3 7.0 0.00 0.37 0.12 62 1020.2
20260905080535 65 227 6.1 7.8 0.00 0.37 0.12 58 1020.2
20260905075537 64 276 4.3 8.7 0.00 0.37 0.12 62 1020.2
20260905074537 63 241 3.5 6.1 0.00 0.37 0.12 64 1020.2
20260905073522 61 220 4.3 5.2 0.00 0.37 0.12 69 1020.2
20260905072557 60 215 3.5 5.2 0.00 0.37 0.12 71 1020.2
20260905071557 59 293 3.5 7.0 0.00 0.37 0.12 73 1020.2
20260905070545 59 211 1.7 2.6 0.00 0.37 0.12 74 1020.2
20260905065545 59 228 2.6 3.5 0.00 0.37 0.12 75 1020.2
20260905064612 58 242 2.6 2.6 0.00 0.37 0.12 76 1020.2
20260905063520 58 234 2.6 3.5 0.00 0.37 0.12 78 1020.2
20260905062532 58 231 2.6 3.5 0.00 0.37 0.12 78 1020.2
20260905061555 58 242 2.6 3.5 0.00 0.37 0.12 78 1019.6
20260905060518 58 240 2.6 5.2 0.00 0.37 0.12 79 1019.2
20260905055532 58 230 3.5 5.2 0.00 0.41 0.12 79 1019.2
20260905054614 58 231 2.6 3.5 0.00 0.41 0.12 79 1019.2
20260905053543 58 238 1.7 2.6 0.00 0.41 0.12 79 1019.2
20260905052527 58 242 1.7 3.5 0.00 0.41 0.12 79 1019.2
20260905051611 57 243 2.6 3.5 0.00 0.41 0.12 79 1019.2
20260905050515 57 267 2.6 5.2 0.00 0.41 0.12 79 1019.2
20260905045032 57 245 0.9 1.7 0.00 0.41 0.12 79 1018.2
20260905043020 57 218 0.9 1.7 0.00 0.41 0.12 78 1018.2
20260905042034 57 254 0.9 1.7 0.00 0.41 0.12 79 1018.2
20260905041038 57 247 1.7 2.6 0.00 0.41 0.12 78 1018.2
20260905040058 57 244 1.7 1.7 0.00 0.41 0.12 79 1018.2
20260905035023 58 229 2.6 3.5 0.00 0.41 0.12 79 1018.2
20260905034031 58 225 1.7 2.6 0.00 0.41 0.12 79 1018.2
20260905033038 58 218 1.7 1.7 0.00 0.41 0.12 79 1018.2
20260905032042 58 225 0.9 2.6 0.00 0.41 0.12 79 1018.2
20260905031024 58 254 1.7 2.6 0.00 0.41 0.12 79 1018.2
20260905030051 58 240 2.6 2.6 0.00 0.41 0.12 79 1018.2
20260905024520 58 255 0.0 1.7 0.00 0.41 0.12 80 1018.2
20260905023534 58 225 1.7 2.6 0.00 0.41 0.12 80 1018.2